Date,TemperatureHighF,TemperatureAvgF,TemperatureLowF,DewpointHighF,DewpointAvgF,DewpointLowF,HumidityHigh,HumidityAvg,HumidityLow,PressureMaxIn,PressureMinIn,WindSpeedMaxMPH,WindSpeedAvgMPH,GustSpeedMaxMPH,PrecipitationSumIn
2013-5-1,79.4,67.3,54.3,54.7,38.5,24.2,77,40,17,29.93,29.69,18,2,18,0.00
2013-5-2,87.7,70.7,54.5,53.3,44.5,32.8,76,44,17,29.99,29.92,9,1,0,0.00
2013-5-3,83.3,66.9,56.7,55.2,18.8,-99.9,80,52,27,29.92,29.64,6,0,0,0.00
2013-5-4,73.1,59.1,52.9,54.6,50.6,44.8,91,75,46,29.64,29.44,15,2,15,0.00
2013-5-5,64.0,57.4,53.0,54.5,51.1,49.1,88,80,69,29.66,29.46,15,1,16,0.00
2013-5-6,69.6,60.5,54.2,56.0,52.7,50.1,87,76,55,29.82,29.66,10,1,0,0.00
2013-5-7,67.6,59.5,52.9,56.7,54.0,51.2,94,82,65,29.89,29.80,8,1,0,0.00
2013-5-8,62.7,55.1,51.0,54.5,51.0,48.1,94,86,73,29.98,29.88,12,1,12,0.00
2013-5-9,67.3,56.4,49.7,56.2,50.8,47.1,92,82,65,30.02,29.93,9,0,0,0.00
2013-5-10,68.3,56.6,49.4,57.7,51.7,46.8,93,84,67,30.03,29.95,8,0,0,0.00
2013-5-11,72.2,57.1,49.2,59.8,52.3,47.9,96,85,62,29.99,29.90,7,1,0,0.00
2013-5-12,75.8,60.8,50.8,62.7,54.7,49.1,96,82,60,29.99,29.87,7,0,0,0.00
2013-5-13,75.1,60.3,49.2,61.9,54.3,47.5,95,82,62,29.93,29.79,9,1,0,0.00
2013-5-14,73.7,60.2,51.4,57.9,52.3,46.9,93,76,56,29.83,29.76,9,1,0,0.00
2013-5-15,70.5,58.5,47.9,54.9,49.9,44.8,91,74,54,29.88,29.82,9,1,0,0.00
2013-5-16,66.7,58.8,53.6,58.9,52.6,46.6,88,80,69,29.88,29.80,12,1,12,0.00
2013-5-17,66.8,57.4,49.4,54.7,48.8,45.3,88,73,58,29.92,29.81,9,1,0,0.00
2013-5-18,76.0,60.6,47.8,56.4,49.9,44.1,94,70,42,29.98,29.91,13,2,13,0.00
2013-5-19,78.7,64.8,53.1,56.9,51.6,45.8,84,65,38,29.97,29.82,10,1,0,0.00
2013-5-20,84.0,64.4,52.1,58.4,51.2,46.0,87,66,29,29.85,29.77,11,0,0,0.00
2013-5-21,72.0,59.2,50.6,54.8,47.0,37.8,90,66,43,29.84,29.75,14,2,14,0.00
2013-5-22,67.0,56.2,47.9,42.4,37.3,30.7,73,50,31,29.86,29.74,16,2,16,0.00
2013-5-23,70.8,57.1,46.7,50.9,44.2,39.7,80,63,41,29.84,29.76,10,1,0,0.00
2013-5-24,71.0,57.4,46.6,52.2,46.0,42.3,89,68,38,29.85,29.77,9,1,0,0.00
2013-5-25,70.6,57.3,46.5,54.1,48.5,43.4,90,74,51,29.88,29.80,11,1,0,0.00
2013-5-26,65.9,58.1,51.2,56.3,52.2,48.8,94,81,70,29.97,29.88,12,1,12,0.00
2013-5-27,64.1,56.6,52.3,56.8,52.7,47.8,96,87,73,29.96,29.84,7,0,0,0.04
2013-5-28,71.8,61.2,53.9,61.3,55.6,50.2,97,83,62,29.85,29.76,9,1,0,0.02
2013-5-29,73.5,61.8,54.0,58.7,53.3,47.0,85,74,53,29.81,29.74,10,1,0,0.00
2013-5-30,75.8,60.7,49.2,55.4,50.8,45.6,90,72,37,29.83,29.77,10,1,0,0.00
2013-5-31,86.8,63.9,50.6,58.9,52.9,47.5,90,70,36,29.86,29.75,7,0,0,0.00